Regional Weather Roundup
Issued by NWS Grand Forks, ND

Home | Current Version | Previous Version | Text Only | Print | Product List | Glossary Off
Versions: 1 2 3 4 5 6 7 8 9 10 11 12 13 14 15 16 17 18 19 20 21 22 23 24 25 26 27 28 29 30 31 32 33 34 35 36 37 38 39 40 41 42 43 44 45 46 47 48 49 50

000
ASUS43 KFGF 201831
RWRFGF
PRAIRIE TO PINES  WEATHER ROUNDUP
NATIONAL WEATHER SERVICE EASTERN NORTH DAKOTA/GRAND FORKS ND
100 PM CDT SAT SEP 20 2014

 **SATELLITE DATA USED TO AUGMENT SKY COVER AT AUTOMATED STATIONS**
 *****  WEATHER ACROSS EASTERN NORTH DAKOTA  *****

CITY           SKY/WX    TMP DP  RH WIND       PRES   REMARKS
GRAND FORKS    LGT RAIN  57  55  94 NW17G26   29.75S
6HR MIN TEMP:  51; 6HR MAX TEMP:  69; 6HR PCP:  0.25;

GRAND FRKS AFB CLOUDY    57  57 100 NW16G24   29.77R
GRAND FRKS NWS   N/A     57 N/A N/A NW7         N/A
DEVILS LAKE    CLOUDY    59  52  77 NW16      29.83R
6HR MIN TEMP:  54; 6HR MAX TEMP:  63; 6HR PCP:  0.18;

FARGO          MOSUNNY   70  58  65 SW9       29.77F
WAHPETON ARPT  PTCLDY    72  52  49 W12       29.79S
$$

 ***** WEATHER ACROSS CENTRAL AND WESTERN NORTH DAKOTA  *****

CITY           SKY/WX    TMP DP  RH WIND       PRES   REMARKS
BISMARCK       MOSUNNY   71  48  43 NW23G30   29.96R
6HR MIN TEMP:  50; 6HR MAX TEMP:  71;

MINOT          LGT RAIN  67  46  47 W25G39    29.92R
6HR MIN TEMP:  55; 6HR MAX TEMP:  67; 6HR PCP:  0.02;

JAMESTOWN      CLOUDY    60  56  86 NW12      29.86R
6HR MIN TEMP:  52; 6HR MAX TEMP:  67; 6HR PCP:  0.10;

MINOT AFB      SUNNY     66  50  55 NW26G38   29.90R
GARRISON         N/A     69  47  45 NW25G40   29.95R
WILLISTON      MOSUNNY   70  38  31 NW25G38   30.04R
6HR MIN TEMP:  54; 6HR MAX TEMP:  71;

DICKINSON      MOSUNNY   68  41  37 NW25G35   30.04R
6HR MIN TEMP:  53; 6HR MAX TEMP:  69;

HETTINGER      SUNNY     70  45  40 NW23G32   30.07R
6HR MIN TEMP:  52; 6HR MAX TEMP:  70;

$$

 *****  OTHER AIRPORT OBSERVATIONS IN OUR AREA  *****

CITY           SKY/WX    TMP DP  RH WIND       PRES   REMARKS
WALHALLA       LGT RAIN  55  55 100 NW16G26   29.78R
GRAFTON AIRPOR LGT RAIN  55  55 100 NW17G26   29.75S
VALLEY CITY AR RAIN      57  57 100 NW12      29.84R
CANDO          FAIR      63  54  72 NW21G28   29.84S
CAVALIER APRT  LGT RAIN  55  54  94 NW15G26   29.76F
GWINNER        MOCLDY    66  61  82 NW13      29.84R
SHEYENNE NWR     N/A     71  56  58 W10       29.95S
ROLLA          FAIR      63  48  59 NW22      29.85R
 ***** THE ABOVE OBSERVATIONS ARE NON NWS ARE NOT QUALITY
       CONTROLLED AND MAY MIS-REPORT RAIN FOR SNOW...
$$

  *****  WEATHER ACROSS NORTHERN MINNESOTA  *****

CITY           SKY/WX    TMP DP  RH WIND       PRES   REMARKS
FLAG ISLAND    MOSUNNY   54  46  76 CALM      29.71S
WARROAD        PTSUNNY   61  52  72 SW5       29.72F
ROSEAU         CLOUDY    61  52  72 SW6       29.71F
HALLOCK        RAIN      57  55  94 W14       29.73S
THF RVR FALLS  CLOUDY    64  55  72 SW12      29.71F
6HR MIN TEMP:  54; 6HR MAX TEMP:  64;

BAUDETTE       MOSUNNY   60  46  59 CALM      29.72F
6HR MIN TEMP:  50; 6HR MAX TEMP:  61;

WASKISH        SUNNY     61  52  72 CALM      29.74F
CROOKSTON      TSTM      55  54  94 W17G43    29.75R VSB 1
STEPHEN NDAWN    N/A     57  57 100 W6          N/A
GREENBUSH NDAW   N/A     57  55  94 SW3         N/A
$$
  *****  WEATHER ACROSS CENTRAL AND WEST MINNESOTA  *****

CITY           SKY/WX    TMP DP  RH WIND       PRES   REMARKS
FOSSTON        PTSUNNY   66  57  72 S8        29.73F
BEMIDJI        CLOUDY    61  54  77 W9        29.76F
PARK RAPIDS    PTSUNNY   65  55  70 W8        29.78F
6HR MIN TEMP:  55; 6HR MAX TEMP:  64;

ELBOW LAKE     FAIR      70  56  62 SW10      29.80F
6HR MIN TEMP:  55; 6HR MAX TEMP:  71;

WADENA         MOSUNNY   68  55  64 W9        29.78F
DETROIT LAKES  MOSUNNY   68  55  64 W10G17    29.79F
MOORHEAD       MOSUNNY   70  61  73 SW9       29.78R
FERGUS FALLS   SUNNY     72  52  49 W10       29.79F
MORRIS MN      SUNNY     75  55  50 W14       29.81F
STAPLES        PTSUNNY   66  55  68 W9        29.79F
$$
  *****  WEATHER ELSEWHERE ACROSS MINNESOTA  *****

CITY           SKY/WX    TMP DP  RH WIND       PRES   REMARKS
DULUTH         MOSUNNY   66  49  54 W13       29.73F
6HR MIN TEMP:  59; 6HR MAX TEMP:  66;

INTRNTL FALLS  PTSUNNY   57  49  74 W8        29.73F
6HR MIN TEMP:  52; 6HR MAX TEMP:  58;

ELY            CLOUDY    54  50  87 W7        29.73F
CLOQUET        SUNNY     66  48  52 SW12G20   29.74F
WHEATON        SUNNY     73  55  53 SW12G17   29.81F
BRAINERD       PTSUNNY   64  54  69 W10       29.80F
6HR MIN TEMP:  56; 6HR MAX TEMP:  64;

HIBBING        SUNNY     66  45  46 NW13G20   29.75S
6HR MIN TEMP:  56; 6HR MAX TEMP:  66;

ALEXANDRIA     SUNNY     68  56  65 W10       29.83F
6HR MIN TEMP:  56; 6HR MAX TEMP:  68;

SAINT CLOUD    SUNNY     74  56  53 NW13      29.80F
6HR MIN TEMP:  59; 6HR MAX TEMP:  74;

MINNEAPOLIS    MOSUNNY   74  56  53 W9        29.79F
6HR MIN TEMP:  63; 6HR MAX TEMP:  74;

$$

  *****  WEATHER ACROSS SOUTH DAKOTA  *****

CITY           SKY/WX    TMP DP  RH WIND       PRES   REMARKS
SIOUX FALLS    SUNNY     79  55  43 W10       29.91F
6HR MIN TEMP:  62; 6HR MAX TEMP:  79;

BROOKINGS      NOT AVBL
WATERTOWN      SUNNY     75  53  46 W14       29.87F
6HR MIN TEMP:  52; 6HR MAX TEMP:  75;

HURON          MOSUNNY   82  52  35 W13G22    29.88F
6HR MIN TEMP:  52; 6HR MAX TEMP:  82;

SISSETON         N/A     77  56  48 W15       29.80F
ABERDEEN       MOSUNNY   77  58  51 SW10      29.84F
6HR MIN TEMP:  54; 6HR MAX TEMP:  77; 6HR PCP: TRACE;

MITCHELL       SUNNY     79  58  48 W12G18    29.92F
PIERRE         SUNNY     80  50  34 W24G32    29.94F
6HR MIN TEMP:  55; 6HR MAX TEMP:  80;

MOBRIDGE       MOSUNNY   74  51  44 NW29G38   29.92R
RAPID CITY     NOT AVBL
$$

  *****  SOME WEATHER IN NEARBY STATES *****

CITY           SKY/WX    TMP DP  RH WIND       PRES   REMARKS
GLASGOW MT     SUNNY     69  41  36 NW18      30.15R
6HR MIN TEMP:  49; 6HR MAX TEMP:  69;

GREAT FALLS MT SUNNY     68  43  40 NE6       30.26S
6HR MIN TEMP:  47; 6HR MAX TEMP:  69;

CHEYENNE WY    SUNNY     73  45  36 MISG      30.29F
6HR MIN TEMP:  52; 6HR MAX TEMP:  74;

SCOTTSBLUFF NE SUNNY     79  49  34 NW8       30.19F
6HR MIN TEMP:  51; 6HR MAX TEMP:  79;

OMAHA NE       MOSUNNY   80  67  64 SW8       29.92R
6HR MIN TEMP:  69; 6HR MAX TEMP:  81;

DES MOINES IA  PTSUNNY   77  66  68 S8        29.85F
6HR MIN TEMP:  67; 6HR MAX TEMP:  80; 6HR PCP:  0.01;

DAVENPORT IA   CLOUDY    73  65  75 NW7       29.89F
6HR MIN TEMP:  64; 6HR MAX TEMP:  74;

CHICAGO IL     PTSUNNY   76  64  66 SW12      29.85R
6HR MIN TEMP:  63; 6HR MAX TEMP:  77;

EAU CLAIRE WI  MOSUNNY   73  57  57 W12G18    29.76S
6HR MIN TEMP:  66; 6HR MAX TEMP:  73;

LA CROSSE WI   CLOUDY    75  64  68 W8        29.77F
6HR MIN TEMP:  65; 6HR MAX TEMP:  75; 6HR PCP: TRACE;

$$

  *****  SOME NATIONAL WEATHER *****

CITY           SKY/WX    TMP DP  RH WIND       PRES   REMARKS
LA GUARDIA NY  PTSUNNY   72  56  57 S17       30.20F
6HR MIN TEMP:  61; 6HR MAX TEMP:  74;

RALEIGH NC     PTSUNNY   79  59  50 N5        30.14F
6HR MIN TEMP:  60; 6HR MAX TEMP:  79;

ATLANTA GA     MOSUNNY   81  62  52 E12G17    30.12F
6HR MIN TEMP:  67; 6HR MAX TEMP:  81;

NEW ORLEANS LA MOSUNNY   85  67  54 NE14G24   29.98F
6HR MIN TEMP:  78; 6HR MAX TEMP:  87;

OKLAHOMA CITY  PTSUNNY   85  68  56 S8        30.04F
6HR MIN TEMP:  69; 6HR MAX TEMP:  85;

ALBUQUERQUE NM MOSUNNY   78  57  48 NW8       30.17F
6HR MIN TEMP:  63; 6HR MAX TEMP:  78;

SALT LAKE CITY SUNNY     75  49  39 NW8       30.17F
6HR MIN TEMP:  56; 6HR MAX TEMP:  76;

LOS ANGELES CA CLOUDY    71  61  70 W6        29.97R



USA.gov is the U.S. government's official web portal to all federal, state and local government web resources and services.